Regional Weather Roundup
Issued by NWS Grand Forks, ND

Home | Current Version | Previous Version | Graphics & Text | Print | Product List | Glossary On
Versions: 1 2 3 4 5 6 7 8 9 10 11 12 13 14 15 16 17 18 19 20 21 22 23 24 25 26 27 28 29 30 31 32 33 34 35 36 37 38 39 40 41 42 43 44 45 46 47 48 49 50
000
ASUS43 KFGF 020910
RWRFGF
PRAIRIE TO PINES  WEATHER ROUNDUP
NATIONAL WEATHER SERVICE EASTERN NORTH DAKOTA/GRAND FORKS ND
400 AM CDT THU JUL 02 2015

 **SATELLITE DATA USED TO AUGMENT SKY COVER AT AUTOMATED STATIONS**
 *****  WEATHER ACROSS EASTERN NORTH DAKOTA  *****

CITY           SKY/WX    TMP DP  RH WIND       PRES   REMARKS
GRAND FORKS    CLEAR     59  56  89 S3        29.94S
GRAND FRKS AFB CLEAR     60  56  88 SW6       29.94S
GRAND FRKS NWS   N/A     59 N/A N/A S3          N/A
DEVILS LAKE    CLOUDY    66  61  82 S7        29.92S
FARGO          CLEAR     60  55  83 SE6       29.97S
WAHPETON ARPT  NOT AVBL
$$

 ***** WEATHER ACROSS CENTRAL AND WESTERN NORTH DAKOTA  *****

CITY           SKY/WX    TMP DP  RH WIND       PRES   REMARKS
BISMARCK       CLOUDY    68  65  90 W8        29.94S THUNDER
MINOT          PTCLDY    62  60  93 CALM      29.94S FOG
JAMESTOWN      MOCLDY    63  60  90 S6        29.95S
MINOT AFB      CLEAR     59  59 100 W5        29.93S FOG
GARRISON         N/A     62  61  96 N3        29.95S
WILLISTON      CLEAR     59  55  87 SW6       29.99F
DICKINSON      PTCLDY    60  58  92 NW7       29.99S FOG
HETTINGER      CLOUDY    59  57  93 CALM      30.02S FOG
$$

 *****  OTHER AIRPORT OBSERVATIONS IN OUR AREA  *****

CITY           SKY/WX    TMP DP  RH WIND       PRES   REMARKS
WALHALLA       FAIR      63  63 100 MISG      29.92S
GRAFTON AIRPOR FAIR      59  59 100 SE7       29.94S FOG
VALLEY CITY AR FAIR      59  59 100 S6        29.97S
CANDO          FAIR      63  61  94 CALM      29.94S
CAVALIER APRT  FAIR      59  59 100 S6        29.93S FOG
GWINNER          N/A     61  61 100 E5        29.98R
SHEYENNE NWR     N/A     59  55  88 S2        29.95S
ROLLA          CLOUDY    61  61 100 CALM      29.96S
 ***** THE ABOVE OBSERVATIONS ARE NON NWS ARE NOT QUALITY
       CONTROLLED AND MAY MIS-REPORT RAIN FOR SNOW...
$$

  *****  WEATHER ACROSS NORTHERN MINNESOTA  *****

CITY           SKY/WX    TMP DP  RH WIND       PRES   REMARKS
FLAG ISLAND    CLEAR     66  59  77 SW6       29.93S
WARROAD        CLEAR     61  57  88 SW6       29.96S
ROSEAU         CLEAR     61  55  82 SW6       29.96S
HALLOCK        NOT AVBL
THF RVR FALLS  CLEAR     59  54  82 S7        29.98S
BAUDETTE       CLEAR     58  54  86 CALM      29.95S
WASKISH        CLEAR     66  61  82 SW10      29.97S
CROOKSTON      CLEAR     59  55  88 S7        29.97S
$$
  *****  WEATHER ACROSS CENTRAL AND WEST MINNESOTA  *****

CITY           SKY/WX    TMP DP  RH WIND       PRES   REMARKS
FOSSTON        CLEAR     54  52  94 CALM      29.99S
BEMIDJI        MOCLDY    60  57  90 W3        29.99S
PARK RAPIDS    PTCLDY    61  55  81 SW3       30.00S
ELBOW LAKE     FAIR      56  54  91 SE6       30.00R
WADENA           N/A     55  54  94 CALM      30.00S
DETROIT LAKES  CLEAR     59  55  88 S5        30.01S
MOORHEAD       CLEAR     55  54  94 SE6       29.99R
FERGUS FALLS   CLEAR     57  54  88 S6        30.00R
MORRIS MN      CLEAR     55  54  94 SE5       30.00R
STAPLES        CLOUDY    61  54  77 CALM      30.00S
$$
  *****  WEATHER ELSEWHERE ACROSS MINNESOTA  *****

CITY           SKY/WX    TMP DP  RH WIND       PRES   REMARKS
DULUTH         CLOUDY    56  49  77 CALM      30.01R
INTRNTL FALLS  CLEAR     53  53 100 CALM      29.95S FOG
ELY            CLEAR     48  46  93 CALM      30.00R
CLOQUET        MOCLDY    52  48  87 CALM      30.01S
WHEATON        CLEAR     55  52  88 S6        30.01R
BRAINERD       CLOUDY    61  55  81 CALM      30.00F
HIBBING        CLEAR     49  49 100 CALM      29.99S FOG
ALEXANDRIA     CLEAR     56  53  90 S3        30.03R
SAINT CLOUD    CLEAR     51  50  96 S3        30.00F
MINNEAPOLIS    CLEAR     60  52  74 E3        30.00F
$$

  *****  WEATHER ACROSS SOUTH DAKOTA  *****

CITY           SKY/WX    TMP DP  RH WIND       PRES   REMARKS
SIOUX FALLS    CLOUDY    59  55  87 E6        30.00R
BROOKINGS      PTCLDY    57  52  82 SE5       30.02R
WATERTOWN      PTCLDY    58  53  84 SE7       29.99R
HURON          CLOUDY    61  58  90 SE9       29.96R
SISSETON         N/A     56  54  93 S3        29.99R
ABERDEEN       MOCLDY    63  58  83 S6        29.96S
MITCHELL       CLOUDY    61  58  90 SE7       29.97S
PIERRE         MOCLDY    67  66  97 SE3       29.91F FOG
MOBRIDGE       CLOUDY    70  66  87 E6        29.92S
RAPID CITY     MOCLDY    64  60  87 W5        30.02F
$$

  *****  SOME WEATHER IN NEARBY STATES *****

CITY           SKY/WX    TMP DP  RH WIND       PRES   REMARKS
GLASGOW MT     CLEAR     59  52  77 NW8       30.05R
GREAT FALLS MT PTCLDY    63  51  65 E3        30.18S
CHEYENNE WY    MOCLDY    61  53  75 N22G29    30.22R
SCOTTSBLUFF NE CLOUDY    61  32  33 NE21      30.16F
OMAHA NE       CLOUDY    66  59  78 E3        29.94R
DES MOINES IA  CLEAR     60  55  83 E8        29.94F
DAVENPORT IA   MOCLDY    56  53  90 NE7       29.98S
CHICAGO IL     CLOUDY    54  51  90 NE10      29.98F
EAU CLAIRE WI  CLEAR     51  49  92 CALM      30.01R
LA CROSSE WI   CLEAR     53  51  93 E5        30.01R
$$

  *****  SOME NATIONAL WEATHER *****

CITY           SKY/WX    TMP DP  RH WIND       PRES   REMARKS
LA GUARDIA NY  CLEAR     71  59  65 NW6       29.86S
RALEIGH NC     CLOUDY    75  70  84 SW5       29.91S
ATLANTA GA     PTCLDY    68  63  84 W3        30.00S
NEW ORLEANS LA CLOUDY    75  69  81 SW3       30.05R
OKLAHOMA CITY  MOCLDY    77  68  73 SW12      29.88S
ALBUQUERQUE NM CLOUDY    79  49  34 E17       30.11F
SALT LAKE CITY CLOUDY    78  51  38 S6        30.02S
LOS ANGELES CA CLOUDY    66  61  84 NW6       29.96S
BOISE ID       MOCLDY    80  37  21 S6        29.95R
SEATTLE WA     CLEAR     73  52  47 N6        29.98S
$$

*** WEATHER ACROSS MANITOBA...SASKATCHEWAN AND ONTARIO ***
                ***ONTARIO***

CITY           SKY/WX    TMP DP  RH WIND       PRES   REMARKS
GERALDTON      PTCLDY    45  45 100 CALM      29.98S
THUNDER BAY    CLEAR     48  48 100 CALM      29.98S
SIOUX LOOKOUT  CLOUDY    57  57 100 S2        29.95R
TORONTO        PTCLDY    57  52  82 N12       29.94S
BIG TROUT LK   CLEAR     54  50  87 E6        29.90F
PICKLE LAKE    NOT AVBL
DRYDEN         MOCLDY    61  55  82 S7        29.95R
KENORA         PTCLDY    66  59  77 W3        29.95S
$$
                *** MANITOBA***

CITY           SKY/WX    TMP DP  RH WIND       PRES   REMARKS
BRANDON        FOG       54  54 100 NW6       29.92F VSB 1/4
DAUPHIN        CLEAR     63  59  88 SW8       29.89S FOG
ISLAND LAKE    PTCLDY    63  57  82 S5        29.85F
PILOT MOUND      N/A     63  57  82 SW2         N/A
THE PAS        CLOUDY    61  61 100 NW3       29.90R
THOMPSON       MOCLDY    55  52  88 CALM      29.82F
WINNIPEG       CLEAR     59  57  94 S6        29.91S
LYNN LAKE      CLOUDY    57  52  82 SW7       29.80S
CHURCHILL      CLOUDY    61  57  88 S6        29.70F
GILLAM         MOCLDY    61  46  59 S8        29.81F
$$
                ***SASKATCHEWAN***

CITY           SKY/WX    TMP DP  RH WIND       PRES   REMARKS
ESTEVAN        CLOUDY    55  55 100 NW5       29.97S FOG
KINDERSLEY     CLEAR     57  57 100 NW5       30.07R
LLOYDMINSTER   CLEAR     57  55  94 W7        30.06S FOG
PRINCE ALBERT    N/A     59  57  94 W3        29.96S SMOKE
REGINA         PTCLDY    55  55 100 N3        30.00R FOG
YORKTON        CLEAR     61  59  94 W7        29.94R FOG
N. BATTLEFORD  CLOUDY    61  59  94 W5        30.04S FOG
LA RONGE         N/A     64  61  88 W6        29.92F SMOKE
SASKATOON      PTCLDY    59  57  94 NW7       30.01R
SWIFT CURRENT  CLOUDY    61 N/A N/A NW9       30.05S
$$
NOTE: THESE ARE AUTOMATED STATIONS WITH LIMITED QUALITY CONTROL
      "FAIR" INDICATES FEW OR NO CLOUDS BELOW 12,000 FEET WITH NO
      SIGNIFICANT WEATHER AND/OR OBSTRUCTIONS TO VISIBILITY.
      SKY/WX - SKY CONDITION AND SIGNIFICANT WEATHER.
      TMP - AIR TEMPERATURE.    DP   - DEWPOINT TEMPERATURE.
      RH  - RELATIVE HUMIDITY.  PRES - PRESSURE.
      HX  - HEAT INDEX.         WCI  - WIND CHILL INDEX.
$


USA.gov is the U.S. government's official web portal to all federal, state and local government web resources and services.